Jackpot Winner Texas Poker

Kini Telah hadir Jackpot SUPER ROYAL FLUSH

Kini Telah hadir Jackpot 2000 (khusus table VIP keatas).

Ikutilah global jackpot yang tersedia di system kami, dengan system jackpot terbaru dan pertama di indonesia, anda dapat membeli jackpot dengan harga 100 rupiah saja dan menangkan hadiahnya hingga puluhan juta rupiah.

Jackpot bukanlah suatu keharusan untuk dibeli, namun kami memberikan suatu fitur tambahan untuk member tercinta dari www.nagapoker.com.

Terdapat tiga pilihan harga jackpot yang bisa anda beli yaitu :100,500,1000 dan 2000(khusus table VIP Keatas) rupiah.

Hadiah dari Multi jackpot system www.nagapoker.com

  1. full house x 10 harga jackpot yang anda beli.
      (contoH:anda membeli 1000 maka:1000 X10 = 10.000)
  2. four of kind x 250 harga jackpot yang anda beli
      (contoH:anda membeli 1000 maka:1000 X250 = 250.000)
  3. Straight flush x 1200
      (contoH:anda membeli 1000 maka:1000 X1200 = 1.200.000)
  4. Royal flush x 10000 harga jackpot yang anda beli
      (contoH:anda membeli 1000 maka:1000 X10000 = 10.000.000)
  5. SUPER ROYAL FLUSH x 30000 harga jackpot yang anda beli
      (contoH:anda membeli 1000 maka:1000 X30000 = 30.000.000)

Kondisi kartu

  1. full house adalah kondisi kartu dimana kartu anda dan kartu tengah dengan total 7 kartu bisa mendapatkan nilai 5 kartu dengan kombinasi 1 tris(three of kind) dan 1 pair, contoh 3 kartu 10 dan 2 kartu 5
  2. Four of kind adalah kondisi kartu dimana kartu anda dan kartu tengah dengan total 7 kartu bisa mendapatkan nilai 5 kartu dengan kombinasi 4 kartu yang sama jumlah dan 1 kartu apapun juga contoh anda mendapatkan 4 buah kartu angka 3 dan 1 kartu apapun.
  3. Straight flush adalah kondisi kartu dimana kartu anda dan kartu tengah dengan total 7 kartu bisa mendapatkan nilai 5 kartu dengan kombinasi seri / staright dengan kembang yang sama contoh : urutan kartu dari angka 5, 6, 7, 8 , 9 10 dengan kembang yg sama misalnya as hati
  4. Royal flush adalah kondisi kartu dimana kartu anda dan kartu tengah dengan total 7 kartu bisa mendapatkan nilai 5 kartu dengan kombinasi seri / staright dengan kembang yang sama tetapi kartu tersebut haruslah dimulai dari 10. contoh 10, Queen, Jack, King dan aces dengan kembang yang sama
  5. Super Royal flush adalah kondisi kartu dimana Kedua kartu anda digabung dengan 3 kartu pertama meja haruslah royal flush. contoh kartu anda10,Queen dan 3 kartu pertama meja adalah Jack, King dan aces dengan kembang yang sama

Demikian adalah penjelasan dari Multi Jackpot www.nagapoker.com terima kasih dan selamat bermain salam hoki dari kami


Jackpot Winner

TOP SUPER ROYAL FLUSH
No.TanggalNamaPriceWin
124/04 04:00HOSAKISuper Royal flush15,000,000
223/04 23:21MIMPI007Super Royal flush3,000,000
323/04 07:46FOR11Super Royal flush15,000,000
422/04 22:18AODEG40Super Royal flush30,000,000
522/04 21:55MULT6KSJTCSuper Royal flush30,000,000
TOP ROYAL FLUSH
No.TanggalNamaPriceWin
124/04 04:31THIBONK21Royal flush10,000,000
224/04 04:26POKDOM779Royal flush10,000,000
324/04 03:49SAPUTRA97Royal flush5,000,000
424/04 03:25VINALES1Royal flush1,000,000
524/04 03:06BO301Royal flush1,000,000
TOP STRAIGHT FLUSH
No.TanggalNamaPriceWin
124/04 04:34KORODONG15Straight Flush1,200,000
224/04 04:32DHRONEStraight Flush120,000
324/04 04:29SEMUTT0Straight Flush120,000
424/04 04:28HARYANTO08Straight Flush600,000
524/04 04:26MARJINAL86Straight Flush600,000
LATEST JACKPOT
No.TanggalNamaPriceWin
124/04 04:36SABRIWAFull House1,000
224/04 04:36UDEENFull House1,000
324/04 04:36TEMPURKEUNFour Of A Kind25,000
424/04 04:36MONTAN4Full House1,000
524/04 04:36LIA_2177Full House1,000
624/04 04:36ICA96Full House5,000
724/04 04:36KAMUITUDIAFull House1,000
824/04 04:36KORODONG15Full House10,000
924/04 04:36CUEXS27Full House5,000
1024/04 04:36ULEM27Full House1,000
1124/04 04:36ALENALIN77Full House5,000
1224/04 04:36PEGGY293Full House10,000
1324/04 04:36N464BON4RFull House10,000
1424/04 04:36WASPONDAFull House1,000
1524/04 04:36ALWAYSJPJPFull House1,000
1624/04 04:36D5C994FAFour Of A Kind25,000
1724/04 04:36WAONK11Full House5,000
1824/04 04:36JAFANERFull House5,000
1924/04 04:36PMANBLUESFull House1,000
2024/04 04:36KKQQJJAA10Full House1,000
2124/04 04:36URANGAKAYOFour Of A Kind125,000
2224/04 04:36J60BQQJY2UFull House1,000
2324/04 04:36AIIE13Full House1,000
2424/04 04:36ASRUL13Full House5,000
2524/04 04:36CAHGETASFull House10,000
2624/04 04:36CROW23Full House10,000
2724/04 04:36KINGLARUTFull House10,000
2824/04 04:36NAZWA266Full House1,000
2924/04 04:36VOVO666Full House10,000
3024/04 04:36CERRY_777Full House10,000
3124/04 04:36G11Full House5,000
3224/04 04:36KALIBEJIFull House10,000
3324/04 04:36S1D0MNCUL9Full House5,000
3424/04 04:36SERDA43Full House5,000
3524/04 04:36MEMEY91Full House5,000
3624/04 04:36N2PSYI2Q0DFull House5,000
3724/04 04:36PLGCAMBOLONGGEFull House5,000
3824/04 04:36MARSYA48Full House20,000
3924/04 04:36UK6CBWREHFFull House1,000
4024/04 04:36JAYA71Full House5,000
4124/04 04:36SKCKLAEFull House1,000
4224/04 04:36ENNO_46Full House1,000
4324/04 04:35DADUNG007Full House5,000
4424/04 04:35GAL3MBONGFull House10,000
4524/04 04:35FAYOLA1817Full House5,000
4624/04 04:35SENTIONG53Full House5,000
4724/04 04:35DWBTON4640Full House5,000
4824/04 04:35DD1417JMFull House10,000
4924/04 04:35KALILLA14Full House5,000
5024/04 04:35BG_GANDAFull House10,000
Dewa.FM